Location: Warszawa
(52.2500°N, 21.0000°E)
Time: 07:08:57
(UTC+02:00)

AO-27 - Visible Passes

Search period start: 18 April 2024 00:00
Search period end: 28 April 2024 00:00
Orbit: 785 x 795 km, 98.8° (Epoch: 17 April)

Date Brightness Start Highest point End Pass type
(mag) Time Alt. Az. Time Alt. Az. Time Alt. Az.
18 Apr 8.7 21:26:53 10° S 21:31:51 43° W 21:36:51 10° NNW visible
19 Apr 7.9 20:57:00 10° S 21:02:14 72° WSW 21:07:30 10° NNW visible
19 Apr 10.3 22:40:27 10° WSW 22:42:39 12° W 22:44:51 10° WNW visible
20 Apr 7.7 20:27:32 10° SSE 20:32:44 70° ENE 20:37:58 10° NNW visible
20 Apr 9.8 22:08:46 10° SW 22:12:43 21° W 22:16:42 10° NW visible
21 Apr 9.1 21:38:09 10° SSW 21:42:55 35° W 21:47:44 10° NNW visible
22 Apr 8.2 21:08:05 10° S 21:13:15 60° WSW 21:18:28 10° NNW visible
23 Apr 7.7 20:38:29 10° SSE 20:43:43 83° ENE 20:49:00 10° NNW visible
23 Apr 10.0 22:20:22 10° SW 22:23:51 18° W 22:27:21 10° NW visible
24 Apr 9.3 21:49:28 10° SSW 21:54:00 30° W 21:58:35 10° NNW visible
25 Apr 8.5 21:19:14 10° S 21:24:17 49° W 21:29:24 10° NNW visible
26 Apr 7.8 20:49:28 10° SSE 20:54:43 83° WSW 21:00:00 10° NNW visible
26 Apr 10.2 22:32:08 10° WSW 22:35:00 15° W 22:37:53 10° NW visible
27 Apr 9.6 22:00:52 10° SSW 22:05:06 25° W 22:09:23 10° NW visible
